Theta_e
319 318 316 314 313 311 313 315 316 316 316 315 315 313 313 312 312 312 310 310 313 315 314 313 312 311 311 312 313 314 313 310 307 307 307 307 307 306 304 303 302 302
318 316 315 315 314 312 312 315 316 316 316 315 314 313 312 312 312 310 307 307 308 308 306 305 304 303 304 305 307 308 306 303 303 303 304 304 304 302 300 300 300 300
318 316 316 316 316 313 312 314 315 315 315 313 312 313 313 312 311 309 307 307 307 305 304 302 300 300 302 302 303 303 303 302 302 302 302 302 302 301 300 301 301 301
318 317 315 314 316 315 313 314 313 314 315 312 311 312 312 311 310 309 309 309 308 307 306 303 301 302 302 302 302 303 303 303 302 302 302 303 302 302 302 302 303 303
318 318 314 312 315 317 315 314 312 312 313 311 310 310 311 311 310 310 310 310 309 309 308 306 304 303 302 302 303 303 303 302 302 302 302 302 303 303 303 303 303 304
315 317 316 314 315 317 316 315 313 311 311 310 309 309 309 310 310 310 311 310 310 309 310 309 308 306 303 302 304 305 304 304 303 302 302 303 303 304 304 304 302 303
313 314 316 316 317 317 317 315 314 313 311 310 309 309 309 308 309 310 311 311 310 310 311 311 310 309 306 304 306 307 308 308 307 305 304 304 304 304 304 304 304 304
314 314 315 317 318 318 318 316 315 315 314 313 311 310 309 308 309 310 310 311 310 310 311 311 310 310 309 307 307 308 309 309 308 307 307 306 307 306 305 305 305 305
314 315 316 317 318 317 318 318 317 317 315 314 313 312 311 309 309 310 311 311 310 309 310 311 311 310 310 308 308 308 309 309 309 309 308 308 308 309 308 306 306 306
314 315 316 317 317 317 318 318 317 317 317 315 314 314 313 311 310 311 312 312 311 309 309 309 310 310 310 309 308 309 309 309 310 310 309 309 309 309 309 308 308 307
314 315 316 316 317 317 318 317 317 317 317 316 315 314 314 313 312 311 312 313 313 311 309 309 309 309 310 310 309 310 310 310 310 310 310 310 310 309 309 309 309 309
315 315 316 317 318 318 318 317 317 317 317 317 315 314 314 313 313 313 312 313 313 312 312 311 310 309 309 310 310 311 310 310 310 310 310 310 310 310 310 310 310 310
317 316 316 317 317 317 318 317 316 317 317 316 316 315 315 314 314 314 313 314 313 313 313 313 313 313 312 312 312 312 311 311 311 310 310 310 311 311 310 311 311 311
318 317 317 317 316 316 317 317 316 317 316 316 316 316 316 316 316 315 314 314 314 314 314 314 314 314 315 315 315 314 314 314 313 312 313 312 312 312 312 312 312 312
318 318 317 317 317 317 317 317 316 316 316 316 316 315 315 316 317 316 315 316 316 315 315 316 315 315 314 314 315 316 316 316 316 315 315 315 315 315 315 314 314 314
319 319 318 318 318 318 317 317 317 317 317 316 315 315 315 316 317 316 316 317 316 315 315 316 315 315 313 313 314 316 316 316 315 315 315 314 314 315 316 316 316 316
319 318 318 318 318 318 318 318 318 317 317 316 316 316 315 316 317 316 316 316 315 313 315 315 315 315 314 313 314 316 316 316 317 317 316 316 316 317 317 317 317 317
318 318 318 318 318 318 318 317 317 317 317 317 317 316 316 317 317 316 316 315 314 314 314 315 316 315 314 314 316 316 316 315 314 314 316 316 317 317 318 318 318 318
318 318 318 318 318 318 318 317 317 317 317 317 316 316 316 317 317 316 315 315 314 314 315 316 316 315 315 316 316 315 312 309 309 311 313 315 316 316 317 317 317 317
318 318 318 318 317 317 317 317 317 317 316 316 316 317 317 317 317 316 316 316 315 315 316 316 316 315 316 316 315 311 308 306 307 311 313 313 314 315 315 315 314 314
317 317 317 317 317 317 317 317 317 316 316 317 317 317 317 317 317 317 317 317 316 316 316 316 316 316 316 314 312 310 308 305 306 308 309 310 311 312 312 313 312 312
314 314 315 316 316 317 317 317 317 316 317 317 317 317 317 317 316 316 316 316 316 316 316 316 316 316 315 312 311 310 309 307 306 307 307 308 310 310 310 311 311 311
310 312 313 314 316 316 316 316 316 317 317 316 316 316 315 315 314 314 314 314 315 315 315 315 316 315 313 312 311 310 309 308 308 307 307 308 309 309 309 309 309 309
308 311 312 313 314 315 314 314 314 314 313 313 313 313 313 312 313 312 312 313 313 313 314 315 314 313 312 312 311 310 309 309 308 308 308 308 308 308 308 307 306 306
307 309 310 310 311 311 310 310 310 309 308 309 309 310 310 309 310 310 311 311 312 312 312 313 313 313 312 312 311 310 309 309 308 308 308 308 307 307 306 305 304 303
306 308 308 307 307 307 307 307 306 306 306 306 307 307 307 307 307 307 308 310 311 311 312 313 313 312 312 311 310 309 309 308 308 307 307 307 306 305 304 303 303 302
Wind_Speed
20 18 16 15 14 13 15 16 16 15 15 13 13 13 12 11 9 7 7 8 9 9 9 9 8 9 9 9 9 9 9 8 9 9 9 10 10 10 11 11 10 10
19 17 14 14 13 12 14 15 15 14 14 13 13 13 12 11 9 8 8 9 10 10 10 10 10 10 10 10 10 9 9 10 10 10 9 10 11 11 12 12 11 11
16 16 12 11 13 14 14 15 14 14 14 13 13 14 14 12 11 9 9 9 10 10 11 11 11 11 11 11 11 10 11 11 11 11 10 11 11 11 12 12 12 12
13 13 8 6 11 16 16 16 15 14 14 13 13 13 14 13 12 11 10 9 9 9 9 10 10 10 10 10 10 10 11 11 12 12 12 12 11 11 12 12 13 13
12 12 10 10 14 19 21 19 17 15 14 13 12 12 13 13 12 12 11 10 9 8 7 7 8 8 9 9 9 9 10 11 12 11 12 13 12 11 11 11 12 13
16 16 18 20 20 22 24 21 19 17 15 14 13 12 12 13 13 12 11 11 10 9 7 7 6 6 7 8 7 7 8 8 9 9 9 10 10 10 10 10 11 12
25 23 24 25 24 23 25 24 21 19 16 15 14 13 12 13 13 12 11 11 10 9 8 7 7 6 6 7 6 6 6 6 6 6 5 6 7 6 7 8 9 10
28 24 25 28 25 24 25 25 23 22 19 16 15 14 13 13 13 13 12 11 11 11 10 9 9 8 7 7 6 5 5 5 5 4 4 4 4 4 5 6 6 6
29 25 25 27 25 24 26 26 24 23 22 19 16 15 14 14 14 14 13 11 11 11 11 10 10 10 10 8 7 7 6 5 5 4 4 4 4 4 4 5 5 5
30 25 23 26 28 26 25 26 25 23 23 21 18 18 18 17 16 15 15 13 12 12 12 11 10 11 11 10 9 9 9 8 7 6 6 6 6 6 6 6 6 6
28 25 24 27 29 26 23 24 25 23 23 23 20 18 18 19 18 17 16 15 13 12 11 12 12 12 11 11 11 11 12 12 11 10 10 10 9 9 9 9 9 9
26 25 25 24 25 24 21 21 23 23 21 20 19 16 15 16 16 15 14 13 10 7 7 8 10 11 12 12 11 12 14 15 15 14 13 13 13 12 12 12 13 13
22 23 23 22 24 26 23 20 22 22 20 18 16 13 12 13 14 13 12 12 10 8 8 10 12 12 11 11 11 12 14 17 17 17 16 16 15 15 15 15 15 16
23 24 26 25 27 28 24 21 21 20 19 18 14 10 10 13 15 15 13 10 9 10 12 13 13 13 12 14 14 14 16 18 19 18 18 18 18 18 18 18 18 19
24 26 28 27 26 26 24 23 21 19 19 15 14 17 20 19 19 18 17 15 12 11 15 17 15 13 13 16 18 18 18 19 18 19 19 19 19 19 19 20 21 21
24 24 25 26 25 25 25 24 22 22 21 15 17 24 27 26 24 22 21 19 15 15 21 23 20 18 19 21 21 19 17 17 18 18 19 19 19 19 19 20 20 21
23 23 23 24 25 25 25 25 24 24 20 17 20 25 27 28 26 23 23 22 21 24 26 26 24 23 23 23 22 19 18 18 16 15 14 15 16 17 17 17 17 17
22 23 24 24 24 23 23 23 23 20 17 18 23 26 28 28 24 22 24 24 25 27 25 24 25 23 21 22 21 18 17 14 11 10 11 12 13 14 15 16 16 16
20 22 24 23 21 21 21 21 21 19 18 20 23 24 24 23 21 21 22 23 24 25 24 24 24 22 21 20 17 13 9 7 7 8 9 9 10 11 12 14 14 15
18 20 21 20 20 20 20 21 20 19 18 19 20 20 20 19 19 19 21 22 22 22 22 21 21 21 20 15 10 5 2 4 5 5 5 5 6 6 7 8 9 10
18 19 19 17 16 16 18 19 19 18 18 18 18 18 18 16 16 18 18 18 18 18 18 19 19 17 13 10 8 3 2 3 3 3 4 4 5 6 7 7 7 7
14 16 17 16 16 16 17 18 17 17 17 17 17 16 15 15 16 17 16 15 16 16 16 16 14 12 12 10 6 1 1 2 3 4 4 5 6 7 8 8 8 7
7 10 12 14 16 16 15 13 13 14 14 14 14 13 13 14 15 14 13 12 12 13 13 12 13 13 12 9 5 2 1 1 2 4 5 6 7 7 8 8 8 6
7 6 7 10 13 12 12 11 12 12 12 12 13 13 13 13 13 12 11 10 10 10 11 11 12 11 10 8 5 4 2 1 1 2 3 4 5 5 6 6 5 4
8 7 7 10 12 13 13 14 14 14 14 13 13 14 14 13 12 12 11 11 10 9 9 10 10 9 9 7 5 4 3 2 1 1 1 1 2 2 2 2 2 2
8 10 12 14 14 15 15 16 16 16 15 14 14 14 14 13 12 11 11 11 10 9 8 9 9 9 8 7 6 5 4 2 1 1 0 1 1 1 1 1 2 2
Wind_Direction
190 193 197 198 197 200 197 193 191 189 187 183 176 173 171 169 169 174 178 174 172 169 164 162 156 150 146 143 144 143 136 129 120 119 121 116 112 112 108 102 101 102
184 189 199 201 199 208 210 204 201 200 199 194 187 182 181 180 181 182 177 168 164 162 155 150 146 141 139 144 149 148 142 132 123 123 120 113 111 109 104 102 103 104
174 182 201 213 209 214 219 215 211 209 209 204 195 190 188 187 185 181 175 168 162 155 150 147 145 142 140 142 145 144 140 133 127 126 121 115 116 115 108 105 106 107
168 184 204 238 231 228 227 222 217 216 217 214 203 196 194 190 186 184 178 175 169 161 156 152 150 150 148 147 147 145 141 136 133 131 127 122 123 122 116 112 112 112
184 200 200 212 227 232 230 225 224 221 221 222 213 203 200 195 192 190 186 185 182 175 170 164 160 158 157 154 151 148 144 139 137 136 132 128 128 128 124 122 121 119
204 212 210 215 226 231 230 228 227 224 222 226 221 214 212 207 202 200 197 196 194 190 187 184 178 170 165 164 160 153 149 142 139 140 136 130 129 131 131 130 129 128
205 212 218 226 232 232 231 229 228 225 222 225 225 222 222 218 212 209 208 208 208 209 208 207 205 198 186 183 180 170 163 155 148 146 145 138 133 133 137 141 139 135
200 211 223 230 233 235 233 230 229 226 220 221 228 228 226 226 222 216 216 219 220 222 221 220 219 214 209 206 204 202 191 182 175 168 170 174 167 157 151 156 161 155
201 214 224 227 230 234 234 232 230 228 223 219 222 227 227 227 225 220 220 225 228 230 229 226 224 222 224 225 225 231 231 219 213 207 208 218 217 210 197 187 191 195
205 217 226 229 228 228 232 235 231 228 227 221 218 222 224 222 223 223 222 226 231 234 233 231 229 227 231 238 243 252 258 253 249 247 247 252 252 249 244 237 232 227
211 220 229 234 231 228 233 238 235 230 229 227 222 221 219 217 220 222 222 226 230 235 239 239 239 236 236 243 249 257 266 268 266 265 266 268 267 265 264 261 261 257
219 223 228 232 232 235 239 238 233 230 227 225 224 222 217 214 217 221 222 222 223 238 264 270 265 259 252 250 254 260 267 271 272 272 273 274 274 274 274 273 274 275
224 225 228 227 226 233 241 235 225 222 218 213 211 214 215 216 221 224 220 219 223 242 278 298 294 284 277 272 272 275 276 276 276 274 273 274 276 277 276 276 277 280
219 221 224 224 220 224 231 224 215 212 206 197 194 211 234 235 230 225 221 228 238 244 259 272 273 276 283 283 282 284 285 282 279 277 277 276 276 276 275 274 275 277
217 219 219 219 215 214 213 207 205 204 199 197 208 229 242 242 232 228 231 237 241 249 254 251 249 261 273 274 279 284 286 285 283 281 281 279 277 276 274 273 272 272
213 209 207 207 205 203 199 195 195 194 193 200 212 220 231 236 231 231 234 232 229 238 248 245 239 243 251 257 269 279 282 285 285 280 277 274 272 272 269 269 269 267
204 199 196 193 190 188 187 186 185 184 188 199 203 209 224 231 228 227 227 226 226 229 237 240 235 235 241 249 261 271 277 283 282 274 270 268 267 269 270 272 273 271
197 191 185 182 181 183 185 185 186 191 199 203 201 207 218 221 220 220 220 223 227 228 233 238 236 235 241 251 261 268 274 279 275 268 269 269 271 273 276 279 280 279
198 192 188 190 197 203 204 200 202 209 212 208 206 209 213 213 214 218 218 221 225 228 235 239 237 239 250 259 263 263 266 273 274 275 276 277 280 282 282 283 285 286
211 207 205 209 215 217 213 208 206 206 207 206 207 208 210 213 218 220 220 222 225 231 238 241 242 249 256 255 243 230 268 306 295 293 300 308 310 308 304 302 302 302
226 225 224 223 222 217 211 207 206 206 207 207 206 206 210 217 222 224 225 227 231 237 241 245 248 250 241 216 195 184 9 357 346 344 345 349 353 353 350 344 335 330
239 238 237 233 227 222 217 215 214 211 207 206 205 208 215 220 222 227 230 232 234 236 237 238 232 215 195 184 180 174 10 23 27 20 13 9 9 9 9 6 359 351
264 247 242 232 224 221 218 213 208 203 201 201 201 202 207 209 210 212 213 213 214 214 210 203 192 184 184 186 178 169 216 323 19 23 18 12 10 10 11 10 6 2
291 260 240 223 212 206 199 193 187 184 183 183 182 178 174 175 176 174 171 172 176 178 178 180 183 187 191 191 179 175 203 240 59 35 20 15 13 10 7 9 14 24
283 254 226 208 197 186 180 177 173 168 164 161 163 163 158 156 159 159 157 159 166 173 178 185 193 197 194 191 184 174 171 162 123 64 35 28 12 3 5 25 43 77
278 243 217 205 197 187 180 177 172 167 164 162 162 162 158 154 152 151 150 152 158 168 179 189 196 197 194 192 185 172 162 153 140 125 147 191 198 204 190 155 148 144